DW2640 Weather Reports


Display with metric or nautical units.
time (UTC)temp
F
wind
direction
speed
MPH
gust
MPH
rain 1hr
in
rain 24hr
in
rain mn
in
humidity
%
barometer
mb
20260905093042 78 190 0.0 2.0 0.00 0.00 0.00 72 1010.4
20260905091534 79 190 0.0 2.0 0.00 0.00 0.00 70 1010.5
20260905090033 79 190 0.0 2.0 0.00 0.00 0.00 69 1010.5
20260905084537 79 190 0.0 2.0 0.00 0.00 0.00 69 1010.4
20260905083030 79 194 0.0 2.0 0.00 0.00 0.00 68 1010.3
20260905081529 80 194 0.0 4.0 0.00 0.00 0.00 68 1010.3
20260905080044 80 226 0.0 4.0 0.00 0.00 0.00 68 1010.2
20260905074526 80 190 1.0 4.0 0.00 0.00 0.00 68 1010.0
20260905073036 80 182 2.0 6.0 0.00 0.00 0.00 67 1010.0
20260905071522 81 166 1.0 5.0 0.00 0.00 0.00 67 1009.9
20260905070021 81 173 2.0 5.0 0.00 0.00 0.00 66 1010.0
20260905064519 81 165 3.0 7.0 0.00 0.00 0.00 66 1009.9
20260905063018 81 191 3.0 7.0 0.00 0.00 0.00 66 1009.8
20260905061515 82 202 3.0 9.0 0.00 0.00 0.00 65 1009.8
20260905060012 82 161 5.0 9.0 0.00 0.00 0.00 65 1009.8
20260905054509 82 178 3.0 7.0 0.00 0.00 0.00 65 1009.7
20260905053007 82 162 5.0 8.0 0.00 0.00 0.00 64 1009.9
20260905051504 83 171 3.0 6.0 0.00 0.00 0.00 64 1010.0
20260905050001 83 182 3.0 6.0 0.00 0.00 0.00 63 1010.1
20260905044603 84 172 3.0 7.0 0.00 0.00 0.00 62 1010.2
20260905044503 84 180 3.0 7.0 0.00 0.00 0.00 62 1010.3
20260905043123 84 161 4.0 7.0 0.00 0.00 0.00 61 1010.1
20260905041600 85 151 5.0 8.0 0.00 0.00 0.00 61 1010.0
20260905040119 85 143 4.0 8.0 0.00 0.00 0.00 60 1010.0
20260905034600 86 150 3.0 7.0 0.00 0.00 0.00 59 1010.0
20260905033101 86 150 3.0 8.0 0.00 0.00 0.00 58 1010.1
20260905031558 86 145 4.0 8.0 0.00 0.00 0.00 57 1010.0
20260905030100 86 153 4.0 6.0 0.00 0.00 0.00 57 1010.0
20260905024557 87 138 4.0 6.0 0.00 0.00 0.00 57 1009.7
20260905023103 87 148 3.0 6.0 0.00 0.00 0.00 56 1009.5
20260905021556 88 141 4.0 7.0 0.00 0.00 0.00 55 1009.2
20260905020056 88 173 4.0 7.0 0.00 0.00 0.00 54 1008.8
20260905014554 89 164 3.0 6.0 0.00 0.00 0.00 53 1008.6
20260905013154 89 152 3.0 6.0 0.00 0.00 0.00 52 1008.5
20260905011553 90 144 3.0 7.0 0.00 0.00 0.00 51 1008.3
20260905010054 91 179 2.0 6.0 0.00 0.00 0.00 50 1008.5
20260905004555 92 170 4.0 9.0 0.00 0.00 0.00 48 1008.1
20260905003052 93 159 4.0 9.0 0.00 0.00 0.00 47 1008.2
20260905001552 94 177 5.0 9.0 0.00 0.00 0.00 46 1008.1
20260905000051 95 142 6.0 10.0 0.00 0.00 0.00 45 1008.2
20260904234556 95 157 6.0 13.0 0.00 0.00 0.00 45 1008.0
20260904233050 96 153 7.0 14.0 0.00 0.00 0.00 44 1008.0
20260904231550 96 139 6.0 14.0 0.00 0.00 0.00 43 1007.9
20260904230049 97 190 7.0 13.0 0.00 0.00 0.00 42 1008.1
20260904224554 97 200 6.0 12.0 0.00 0.00 0.00 44 1007.9
20260904223048 97 180 8.0 15.0 0.00 0.00 0.00 43 1007.9
20260904221548 97 196 7.0 16.0 0.00 0.00 0.00 43 1008.0
20260904220107 97 162 8.0 15.0 0.00 0.00 0.00 43 1008.2
20260904214545 97 189 10.0 20.0 0.00 0.00 0.00 44 1008.3
20260904213042 97 209 9.0 15.0 0.00 0.00 0.00 43 1008.3
20260904211542 96 186 6.0 15.0 0.00 0.00 0.00 45 1008.4
20260904210046 96 188 11.0 18.0 0.00 0.00 0.00 45 1008.6
20260904204538 96 194 7.0 14.0 0.00 0.00 0.00 44 1008.7
20260904203047 96 245 7.0 16.0 0.00 0.00 0.00 45 1008.9
20260904201536 96 129 9.0 14.0 0.00 0.00 0.00 45 1009.0
20260904200034 96 187 9.0 15.0 0.00 0.00 0.00 45 1008.7
20260904194530 96 218 8.0 13.0 0.00 0.00 0.00 46 1008.9
20260904193028 96 225 9.0 21.0 0.00 0.00 0.00 46 1008.9
20260904191525 95 148 7.0 15.0 0.00 0.00 0.00 48 1009.0
20260904190022 95 192 9.0 15.0 0.00 0.00 0.00 48 1009.3
20260904184525 94 203 5.0 14.0 0.00 0.00 0.00 50 1009.3
20260904183014 93 274 9.0 14.0 0.00 0.00 0.00 50 1009.6
20260904181510 92 155 8.0 15.0 0.00 0.00 0.00 52 1009.7
20260904180009 92 175 9.0 16.0 0.00 0.00 0.00 52 1009.8
20260904174509 91 175 7.0 14.0 0.00 0.00 0.00 53 1010.2
20260904173015 92 142 8.0 13.0 0.00 0.00 0.00 53 1010.4
20260904171506 91 192 7.0 12.0 0.00 0.00 0.00 54 1010.5
20260904170100 90 180 6.0 14.0 0.00 0.00 0.00 57 1010.5
20260904170005 90 153 5.0 14.0 0.00 0.00 0.00 57 1010.6
20260904164600 89 221 7.0 15.0 0.00 0.00 0.00 57 1010.8
20260904163057 89 200 5.0 10.0 0.00 0.00 0.00 60 1010.9
20260904161617 88 198 6.0 13.0 0.00 0.00 0.00 59 1010.9
20260904160053 87 236 7.0 12.0 0.00 0.00 0.00 60 1010.7
20260904154550 86 163 5.0 13.0 0.00 0.00 0.00 62 1010.7
20260904153053 85 157 6.0 13.0 0.00 0.00 0.00 63 1010.7
20260904151544 85 247 5.0 11.0 0.00 0.00 0.00 65 1010.9
20260904150041 83 213 7.0 11.0 0.00 0.00 0.00 67 1011.0
20260904144551 82 205 6.0 13.0 0.00 0.00 0.00 68 1011.0
20260904143039 81 232 5.0 14.0 0.00 0.00 0.00 70 1010.9
20260904141539 80 221 5.0 13.0 0.00 0.00 0.00 72 1011.2
20260904140050 80 198 6.0 12.0 0.00 0.00 0.00 73 1010.9
20260904134536 78 199 6.0 9.0 0.00 0.00 0.00 76 1010.7
20260904133034 77 177 4.0 9.0 0.00 0.00 0.00 79 1010.7
20260904131533 76 142 4.0 9.0 0.00 0.00 0.00 81 1010.7
20260904130032 75 183 5.0 9.0 0.00 0.00 0.00 82 1010.5
20260904124531 74 166 3.0 7.0 0.00 0.00 0.00 83 1010.3
20260904123029 73 145 5.0 9.0 0.00 0.00 0.00 84 1010.3
20260904121529 73 162 4.0 7.0 0.00 0.00 0.00 85 1010.1
20260904120029 73 179 3.0 5.0 0.00 0.00 0.00 84 1010.2
20260904114536 73 163 2.0 6.0 0.00 0.00 0.00 84 1010.2
20260904113031 74 167 4.0 8.0 0.00 0.00 0.00 83 1010.3
20260904111523 74 150 2.0 7.0 0.00 0.00 0.00 82 1010.2
20260904110020 75 147 3.0 6.0 0.00 0.00 0.00 82 1009.9
20260904104519 75 189 4.0 6.0 0.00 0.00 0.00 81 1010.0
20260904103018 75 162 2.0 6.0 0.00 0.00 0.00 81 1009.9
20260904101517 75 157 4.0 9.0 0.00 0.00 0.00 80 1009.8
20260904100015 76 172 4.0 6.0 0.00 0.00 0.00 80 1009.7
20260904094525 76 161 4.0 8.0 0.00 0.00 0.00 79 1009.6